Dewpoint
13 10 10 13 12 13 9 14 14 15 14 14 13 14 15 16 16 15 14 13 13 14 13 14 15 16 14 13 13 14 14 13 14 13 13 14 16 15 15 15 15 14 14
13 12 10 9 11 11 11 11 14 13 13 14 13 12 12 15 15 14 14 13 13 14 14 14 13 15 15 15 15 14 12 13 14 14 13 13 15 15 15 15 15 14 15
14 14 11 11 11 9 8 9 9 9 11 12 11 11 9 9 11 13 13 12 12 13 14 14 13 14 14 14 14 14 14 14 14 15 15 14 14 14 15 15 15 15 14
13 14 12 12 11 11 10 10 10 9 9 9 10 11 10 8 10 11 11 12 13 13 13 14 15 15 15 15 14 15 15 15 14 14 13 12 14 14 15 15 15 15 14
13 14 14 12 13 13 12 10 10 12 12 10 11 11 11 11 13 15 14 15 15 15 15 15 15 15 16 15 15 15 15 15 14 14 15 14 14 13 12 14 15 15 15
14 14 14 14 14 13 13 13 12 14 15 15 14 13 14 14 15 13 13 15 15 14 15 15 15 15 15 15 16 17 16 16 15 15 14 14 13 13 13 13 14 15 16
14 14 14 15 14 14 13 13 15 15 15 16 16 15 15 16 14 14 14 13 11 13 15 15 15 15 16 16 15 15 15 16 16 16 16 16 15 13 14 13 13 14 15
14 14 15 15 15 15 15 15 15 16 16 16 16 16 15 15 14 14 14 14 13 12 14 14 15 15 15 15 13 10 7 7 10 14 16 16 16 15 15 14 14 14 14
14 15 15 15 16 16 15 15 15 16 17 16 16 16 17 15 14 14 13 14 14 14 13 11 8 6 4 3 3 4 3 1 2 2 4 8 13 16 15 16 16 14 15
16 15 16 16 17 17 17 16 17 16 17 17 16 16 16 14 14 14 14 13 12 8 3 -0 2 5 6 6 6 7 7 6 7 6 5 5 5 6 12 15 15 15 14
16 17 17 17 18 18 18 18 18 18 17 16 15 15 15 14 14 11 7 5 1 -0 0 4 8 9 9 9 8 8 8 8 8 9 9 10 10 9 5 13 15 16 15
17 17 18 18 17 17 18 18 18 18 17 16 16 15 12 9 8 7 2 0 4 4 4 7 10 10 11 11 11 11 11 12 12 12 11 11 11 11 10 9 12 14 14
18 18 18 18 18 18 17 17 17 17 15 15 14 8 9 10 9 4 2 4 6 7 8 11 11 11 12 12 12 12 11 11 12 12 12 11 10 11 11 15 14 15 14
18 18 18 18 18 16 16 16 16 14 12 10 11 11 10 10 7 5 6 7 8 8 10 11 11 12 12 11 10 10 10 11 11 11 11 10 10 12 13 14 14 14 14
18 17 18 17 16 16 15 15 14 13 11 11 10 10 9 7 5 6 6 6 8 9 10 11 11 12 11 11 10 11 10 10 10 10 10 11 12 13 13 13 13 13 14
17 17 16 15 15 15 14 13 11 10 10 10 9 7 6 6 7 9 8 7 8 10 11 11 11 11 11 11 12 11 11 10 11 10 10 11 12 13 13 13 12 12 12
15 14 13 14 14 13 12 11 10 9 9 8 9 10 10 7 9 9 9 8 9 9 10 10 11 11 11 11 11 11 11 11 11 11 11 12 12 13 13 13 13 12 12
13 13 12 12 11 10 10 10 9 9 8 3 3 5 5 5 5 6 8 9 10 8 9 10 11 11 11 11 12 11 11 11 12 11 11 10 11 12 13 13 12 11 10
12 11 11 11 11 11 10 8 6 3 1 2 4 4 4 5 5 6 7 9 10 8 8 8 10 10 11 11 11 11 12 12 12 12 12 12 12 12 12 11 10 10 10
13 12 11 10 10 10 8 4 2 2 2 3 3 2 6 5 5 6 6 7 9 9 7 7 8 9 10 10 11 11 11 11 11 11 11 11 10 10 9 9 9 9 7
13 12 10 10 9 8 6 4 5 5 7 8 7 6 7 5 6 5 4 5 7 8 9 8 8 7 8 10 10 10 9 9 8 8 7 7 6 7 7 7 5 4 4
12 11 10 10 9 8 8 8 7 7 7 7 7 7 6 6 5 3 4 3 4 5 8 9 9 8 8 7 7 7 6 5 4 3 4 4 4 4 5 4 4 3 3
12 11 9 9 9 9 8 8 7 7 5 5 5 4 4 4 4 2 4 2 3 3 4 8 8 8 8 8 7 3 2 3 4 6 6 6 6 5 5 5 5 5 4
10 10 10 10 9 9 8 8 7 6 6 6 5 4 3 3 1 1 4 2 2 2 2 4 5 7 7 8 8 8 7 7 7 7 7 6 6 6 5 6 6 5 5
12 12 11 9 8 9 9 8 8 9 8 7 7 5 4 2 2 0 1 1 0 1 1 1 2 4 6 7 7 7 8 7 7 8 7 6 4 4 4 4 4 3 3
13 12 10 9 8 9 9 8 8 8 9 8 8 7 5 3 2 0 -0 -1 -0 -0 1 1 2 2 1 2 5 4 4 7 7 6 6 5 4 4 3 3 4 3 3
Wind_Speed
22 27 27 31 33 30 30 27 26 26 26 22 17 15 16 16 16 16 18 18 17 18 19 19 17 18 20 20 19 21 21 19 20 22 19 18 13 9 14 17 16 17 15
23 24 27 27 30 32 33 32 31 29 29 29 27 25 22 20 21 20 22 23 20 19 19 20 19 18 20 20 20 21 21 20 22 25 24 22 19 17 17 21 19 18 16
24 24 28 28 28 29 31 32 31 30 32 32 31 29 27 26 28 29 27 26 25 22 22 24 25 24 23 22 22 23 23 22 22 23 26 23 23 22 22 25 24 21 22
25 24 27 29 27 27 26 27 28 30 29 27 27 27 28 24 23 23 23 24 26 26 25 24 24 26 27 27 27 26 23 23 24 25 26 28 29 26 25 25 24 26 28
28 27 26 26 27 26 26 24 23 23 24 24 23 23 24 24 21 20 19 19 20 23 24 26 27 27 27 27 24 25 24 27 27 28 28 30 29 28 28 25 25 28 27
31 29 27 27 28 28 26 26 25 24 24 22 23 23 22 22 24 23 19 19 22 24 28 28 29 30 28 26 26 28 28 28 29 30 31 31 30 28 31 28 22 20 24
33 32 31 29 29 30 30 29 29 29 28 28 27 24 24 22 20 21 21 21 22 26 28 32 33 34 34 34 35 36 35 33 32 31 33 36 35 32 28 30 29 29 28
35 35 34 34 33 31 32 33 33 33 33 33 32 29 25 24 24 21 23 27 23 22 26 31 34 36 37 38 38 38 37 37 38 38 37 36 33 34 32 28 26 25 23
36 36 35 34 34 32 32 33 35 34 35 35 35 30 29 24 21 24 24 25 26 25 27 30 33 36 36 36 36 36 37 36 34 34 35 37 38 35 32 27 27 25 25
30 33 32 30 29 29 28 29 30 31 32 32 28 26 21 21 28 23 21 21 23 26 29 31 31 31 32 31 33 34 36 35 35 36 36 34 32 37 38 28 30 28 28
31 26 29 30 28 27 27 28 30 30 29 29 28 25 24 19 13 13 16 19 21 23 27 28 27 24 23 23 27 33 35 34 34 35 34 32 31 32 32 32 30 28 28
29 28 29 29 28 29 30 30 28 28 28 28 24 15 10 8 8 11 14 17 22 24 26 25 22 20 17 18 20 20 22 25 25 26 25 26 28 21 21 27 30 24 23
27 26 26 26 25 23 21 23 21 17 12 12 11 9 9 9 8 11 16 18 21 21 19 18 16 14 14 14 14 15 18 20 21 21 22 22 20 13 12 19 18 15 15
26 25 25 24 22 19 18 18 18 18 15 12 8 16 13 8 7 7 8 11 13 13 10 9 10 11 13 15 13 13 16 17 14 13 11 11 6 6 11 13 14 13 10
23 24 23 19 15 15 14 13 13 15 16 17 15 7 7 7 2 4 7 14 16 13 11 10 9 10 10 11 13 12 11 8 6 3 6 4 5 9 15 6 6 9 10
21 22 21 20 19 17 15 16 16 15 16 13 10 6 2 3 2 7 14 20 22 16 12 11 11 10 11 12 13 11 11 8 3 4 7 5 7 14 6 8 6 7 9
22 22 20 19 19 19 18 16 16 18 19 18 15 15 9 0 5 7 12 17 23 19 14 10 10 9 8 9 10 11 10 7 6 3 3 9 9 7 8 8 9 7 9
20 19 20 20 20 19 18 17 16 16 13 13 12 12 11 8 5 5 9 12 17 20 17 13 10 7 6 7 9 7 8 8 5 5 8 10 11 7 9 9 9 11 12
20 18 20 19 17 17 19 17 15 14 12 13 15 15 8 5 2 3 5 7 11 17 15 16 10 10 9 7 6 7 6 6 7 10 12 11 10 9 11 12 12 13 13
20 16 16 18 15 14 18 18 17 16 16 15 13 12 6 6 3 3 1 4 6 10 16 17 17 15 11 11 9 9 9 11 12 12 12 11 10 10 12 16 19 20 21
22 19 22 17 13 13 16 19 18 18 17 16 11 8 10 6 6 5 3 5 5 5 7 11 17 18 15 12 11 13 13 14 16 16 17 19 20 23 25 25 24 23 23
27 25 23 24 20 15 16 18 18 17 16 15 15 14 14 16 11 11 10 8 4 5 2 5 9 12 15 12 12 12 14 16 22 26 25 23 22 22 22 22 21 20 18
29 26 21 29 24 23 18 20 19 20 20 18 18 18 17 17 15 12 12 9 7 7 3 2 1 2 4 10 14 15 21 24 19 16 15 13 11 9 7 8 12 15 15
31 30 25 24 27 23 21 23 21 21 20 17 19 16 14 12 8 12 13 13 10 7 7 7 7 7 3 2 1 5 6 8 10 9 6 2 1 3 4 7 7 8 11
32 29 25 20 31 21 23 23 23 20 21 18 19 19 16 14 13 11 12 14 12 11 10 9 13 10 11 9 8 10 11 8 6 6 7 8 9 8 13 10 8 9 8
33 25 30 23 25 25 22 23 23 21 19 20 18 18 15 17 16 16 16 15 14 11 10 10 11 10 10 10 18 14 11 14 15 14 13 16 13 9 13 14 11 16 15
Wind_Direction
216 215 212 211 212 210 206 210 214 218 221 227 235 242 236 236 244 265 270 271 267 271 272 275 272 268 274 274 273 273 274 272 278 276 276 294 275 261 262 285 287 284 278
217 218 217 213 214 215 217 217 218 221 226 229 232 243 248 249 248 255 262 270 273 273 272 276 277 278 279 283 285 284 285 277 277 279 277 276 282 277 286 290 286 279 269
216 222 217 217 217 219 221 225 228 231 231 235 242 248 250 251 251 256 261 268 271 273 275 278 282 284 284 285 289 288 289 286 277 276 276 276 274 274 275 278 271 262 268
219 221 220 216 218 221 224 225 229 234 237 238 240 246 249 252 254 257 259 263 268 274 279 280 280 277 277 279 285 288 291 289 284 278 277 277 275 275 276 270 265 260 268
221 221 226 221 225 226 227 229 225 229 237 240 240 243 246 249 254 257 259 266 273 273 276 278 280 282 280 280 272 278 287 291 290 286 280 279 279 278 267 270 275 268 259
221 225 228 227 227 229 228 228 232 232 237 243 245 246 248 250 253 262 268 271 267 268 271 276 279 279 276 273 274 273 274 274 276 278 279 281 278 283 274 270 277 275 256
222 226 229 230 231 231 232 231 233 237 240 242 245 247 248 251 252 255 257 263 271 263 270 274 277 275 276 275 275 275 271 268 269 268 271 273 278 282 283 272 269 272 278
220 225 229 231 233 235 235 235 237 240 242 245 246 246 247 243 245 246 252 254 269 269 270 269 270 272 272 272 273 272 269 266 263 264 265 267 267 272 275 273 271 274 267
218 223 227 231 233 236 239 241 241 241 247 250 252 247 241 245 252 247 250 257 267 273 272 274 276 276 277 278 277 277 277 275 273 269 264 262 261 264 266 272 271 271 263
216 222 227 230 233 238 243 248 252 247 248 249 250 256 256 245 250 250 256 263 270 277 282 286 288 286 279 274 273 272 273 277 278 277 276 272 265 257 255 262 262 268 262
222 218 222 226 228 233 236 238 243 245 247 249 249 246 241 246 242 259 267 278 292 297 299 304 303 297 288 278 269 267 272 278 279 279 281 281 279 267 253 243 255 259 263
215 217 220 225 233 238 238 243 244 246 248 243 244 232 216 218 239 263 294 306 312 313 312 312 306 301 294 288 283 284 280 280 279 279 283 289 295 286 263 237 241 254 256
216 221 223 227 229 234 244 249 249 253 248 239 215 176 184 212 256 302 311 320 318 313 313 318 327 330 328 326 320 313 303 296 289 282 277 282 285 272 229 224 230 234 240
214 214 217 219 223 228 237 249 252 243 204 168 166 173 193 228 279 314 335 336 329 323 318 335 337 331 324 324 325 318 307 305 294 285 279 278 248 235 218 216 238 227 223
200 199 202 207 210 218 222 234 228 205 189 180 167 196 213 231 235 317 350 8 6 2 13 357 351 337 342 360 5 353 348 5 350 324 188 255 190 229 165 187 185 175 170
207 199 198 199 195 203 211 208 200 200 204 201 178 166 128 296 314 33 36 28 20 18 7 1 7 3 8 9 359 4 7 1 33 138 181 189 188 169 172 166 147 177 178
213 200 191 188 184 180 183 189 189 193 196 198 207 235 235 112 42 28 28 22 18 14 9 3 5 2 8 16 17 35 30 46 55 177 147 172 172 183 185 175 161 171 173
190 188 181 179 182 186 190 194 196 199 205 195 177 150 134 123 90 24 16 18 17 14 24 34 24 28 23 18 19 59 64 64 70 123 151 174 204 188 165 172 170 161 159
187 184 183 186 191 200 203 207 202 189 186 184 173 168 148 129 100 38 19 360 19 17 35 38 35 28 32 38 38 59 81 92 110 121 135 146 156 173 171 157 145 138 145
188 195 196 196 202 213 213 201 190 187 185 194 201 203 207 215 196 228 350 328 8 18 46 50 46 46 49 59 78 91 90 103 112 112 118 127 133 140 137 130 128 130 127
185 190 188 198 214 214 204 193 186 190 198 208 215 207 223 236 220 215 233 269 293 337 28 49 47 45 49 70 89 97 100 106 107 109 110 109 110 113 114 116 119 122 123
193 192 188 189 213 210 210 204 202 214 221 229 240 236 233 228 244 239 236 272 253 280 347 43 39 42 49 68 88 103 109 106 112 112 108 105 104 107 114 120 123 123 126
197 194 192 187 197 213 208 216 215 219 217 222 230 234 238 247 257 241 222 226 241 275 250 196 300 26 40 59 75 96 107 118 117 110 107 104 105 109 119 131 141 147 141
220 216 207 196 188 207 212 211 216 218 221 223 235 241 245 247 249 203 212 235 248 254 238 217 223 232 220 188 83 118 122 131 125 119 109 109 144 209 230 245 247 218 194
190 208 206 197 191 204 209 212 218 222 226 224 230 236 239 244 228 220 226 242 244 245 250 247 218 219 218 214 220 240 225 210 219 192 207 211 217 235 218 216 223 220 216
191 192 202 201 194 196 208 216 220 220 225 228 226 230 238 237 238 239 239 240 239 241 247 244 247 249 237 221 219 220 226 219 230 243 233 216 224 230 223 228 227 226 224
Height
1520 1525 1529 1533 1537 1542 1546 1549 1553 1556 1559 1560 1561 1563 1564 1565 1567 1567 1568 1568 1568 1568 1568 1568 1569 1569 1569 1569 1569 1568 1569 1570 1569 1567 1566 1565 1566 1567 1568 1566 1564 1563 1564
1517 1521 1525 1529 1533 1537 1541 1544 1548 1551 1554 1556 1558 1559 1560 1562 1563 1564 1564 1564 1564 1564 1564 1564 1563 1564 1564 1564 1564 1563 1562 1564 1563 1561 1560 1561 1562 1562 1560 1559 1558 1559 1561
1513 1517 1521 1524 1528 1531 1535 1539 1542 1545 1548 1550 1552 1554 1555 1557 1558 1559 1560 1560 1560 1561 1560 1559 1558 1559 1558 1558 1559 1558 1557 1557 1557 1556 1555 1556 1556 1557 1557 1556 1555 1556 1556
1509 1513 1517 1520 1523 1527 1530 1534 1537 1539 1542 1544 1546 1547 1548 1550 1552 1553 1554 1555 1555 1554 1555 1554 1555 1554 1553 1553 1553 1552 1551 1550 1550 1550 1549 1548 1550 1551 1550 1550 1551 1550 1551
1504 1509 1512 1516 1520 1524 1527 1529 1532 1535 1536 1538 1540 1542 1543 1545 1547 1548 1548 1548 1549 1549 1549 1548 1548 1549 1548 1548 1547 1545 1545 1544 1543 1543 1543 1542 1542 1542 1544 1545 1545 1546 1546
1500 1504 1508 1512 1516 1518 1522 1525 1527 1529 1531 1533 1535 1537 1539 1541 1541 1543 1543 1543 1543 1542 1542 1542 1541 1542 1541 1540 1540 1539 1538 1537 1535 1534 1534 1534 1534 1535 1537 1539 1541 1539 1540
1496 1499 1503 1507 1510 1513 1517 1520 1521 1523 1526 1527 1528 1530 1532 1535 1537 1538 1539 1538 1536 1535 1536 1536 1534 1534 1534 1532 1530 1530 1529 1528 1527 1527 1525 1526 1526 1527 1528 1530 1533 1533 1532
1492 1496 1498 1502 1506 1510 1513 1515 1517 1519 1520 1521 1523 1524 1526 1528 1528 1531 1531 1530 1530 1530 1530 1529 1527 1525 1524 1522 1518 1516 1516 1517 1517 1518 1517 1517 1518 1519 1519 1521 1522 1525 1526
1488 1491 1495 1498 1501 1506 1508 1510 1512 1514 1515 1515 1516 1518 1519 1523 1524 1523 1523 1523 1523 1523 1522 1520 1518 1515 1513 1510 1507 1504 1503 1503 1504 1504 1505 1506 1508 1510 1512 1512 1513 1517 1518
1485 1488 1492 1495 1497 1500 1503 1505 1506 1508 1509 1509 1511 1517 1505 1517 1515 1516 1517 1517 1517 1516 1514 1511 1508 1505 1502 1499 1496 1494 1492 1492 1491 1491 1492 1493 1496 1499 1503 1504 1507 1508 1510
1480 1484 1488 1490 1493 1496 1498 1500 1501 1503 1503 1504 1506 1507 1507 1509 1512 1511 1510 1511 1511 1508 1504 1501 1497 1494 1490 1488 1486 1485 1484 1484 1482 1480 1480 1481 1482 1485 1489 1493 1498 1500 1501
1475 1479 1481 1485 1488 1491 1493 1494 1498 1498 1499 1500 1502 1504 1507 1508 1507 1506 1506 1506 1504 1500 1494 1491 1488 1485 1483 1481 1479 1478 1477 1476 1475 1473 1472 1473 1474 1475 1477 1482 1488 1492 1494
1470 1474 1478 1481 1484 1487 1490 1491 1493 1495 1497 1497 1498 1499 1500 1501 1502 1502 1503 1500 1497 1493 1489 1485 1483 1481 1479 1477 1475 1473 1471 1469 1468 1467 1466 1466 1467 1469 1472 1477 1483 1486 1489
1462 1469 1474 1476 1481 1485 1487 1488 1490 1491 1494 1495 1499 1495 1496 1500 1500 1501 1500 1498 1494 1489 1486 1484 1481 1479 1477 1474 1471 1468 1465 1463 1462 1462 1462 1463 1464 1467 1470 1474 1478 1481 1483
1460 1463 1468 1475 1480 1482 1485 1487 1489 1490 1492 1495 1493 1499 1498 1500 1500 1501 1499 1495 1489 1485 1483 1482 1479 1476 1474 1471 1468 1465 1462 1461 1460 1460 1461 1462 1465 1467 1468 1473 1476 1478 1481
1464 1463 1465 1471 1476 1480 1483 1485 1488 1491 1493 1495 1496 1498 1497 1500 1500 1499 1495 1492 1489 1483 1482 1479 1476 1474 1472 1470 1467 1464 1462 1461 1460 1461 1463 1463 1467 1467 1470 1474 1476 1479 1481
1464 1463 1463 1468 1473 1476 1479 1482 1485 1488 1491 1493 1495 1497 1497 1496 1495 1497 1494 1491 1488 1485 1481 1479 1476 1474 1473 1471 1468 1466 1464 1464 1464 1464 1465 1467 1470 1471 1473 1474 1477 1478 1480
1460 1462 1462 1466 1471 1475 1478 1481 1483 1485 1488 1490 1491 1492 1494 1497 1497 1496 1493 1491 1490 1486 1483 1478 1477 1475 1474 1472 1470 1468 1468 1467 1467 1467 1468 1471 1472 1473 1474 1475 1477 1478 1480
1457 1459 1462 1466 1470 1474 1477 1479 1482 1483 1485 1488 1490 1493 1495 1496 1497 1496 1494 1493 1491 1488 1484 1481 1480 1478 1474 1473 1472 1471 1470 1470 1470 1469 1469 1472 1473 1475 1475 1476 1477 1480 1482
1452 1456 1464 1466 1469 1472 1475 1477 1479 1481 1484 1487 1489 1492 1494 1495 1495 1495 1494 1493 1492 1490 1487 1485 1482 1480 1477 1475 1475 1474 1474 1474 1473 1473 1474 1476 1477 1478 1479 1479 1481 1483 1487
1447 1456 1462 1465 1467 1469 1473 1475 1477 1479 1482 1485 1488 1490 1492 1494 1494 1493 1493 1493 1490 1490 1489 1487 1486 1483 1480 1478 1478 1479 1479 1479 1478 1478 1478 1481 1482 1483 1484 1485 1487 1490 1492
1443 1449 1451 1456 1462 1465 1469 1473 1475 1477 1479 1480 1483 1486 1488 1490 1492 1492 1491 1491 1490 1490 1489 1488 1487 1487 1486 1484 1483 1483 1484 1483 1483 1485 1485 1488 1489 1490 1491 1492 1492 1494 1495
1440 1443 1444 1447 1454 1460 1465 1470 1472 1475 1477 1479 1481 1483 1485 1487 1487 1487 1488 1488 1488 1488 1489 1489 1488 1489 1490 1488 1488 1488 1488 1488 1488 1490 1491 1493 1494 1495 1496 1497 1497 1498 1499
1435 1439 1439 1442 1446 1454 1460 1465 1469 1471 1473 1475 1477 1479 1481 1483 1483 1483 1484 1485 1485 1486 1487 1489 1489 1489 1490 1490 1489 1491 1492 1492 1492 1493 1495 1495 1496 1498 1498 1497 1498 1498 1500
1431 1436 1437 1440 1443 1448 1455 1460 1464 1467 1469 1471 1474 1475 1476 1478 1479 1480 1480 1482 1482 1483 1484 1485 1487 1488 1489 1489 1487 1489 1490 1491 1491 1492 1493 1495 1496 1497 1497 1497 1496 1497 1498
1428 1432 1436 1439 1441 1445 1450 1455 1459 1462 1464 1467 1469 1471 1472 1473 1474 1476 1477 1477 1478 1479 1481 1482 1483 1484 1485 1485 1486 1487 1488 1489 1490 1491 1492 1493 1494 1494 1495 1495 1496 1496 1496